Location: ?????????
(54.7630°N, 39.4991°E)
Time: 10:39:23
(UTC+00:00)

Cosmos 2228 - Pass Details

Date: 14 April 2026
Orbit: 561 x 588 km, 82.5° (Epoch: 19 May)

Event Time Altitude Azimuth Distance (km) Brightness Sun altitude
Exits shadow 22:52:09 33° 288° (WNW) 991 4.0 -22.8°
Maximum altitude 22:52:14 33° 291° (WNW) 990 4.0 -22.8°
Drops below altitude 10° 22:56:05 10° 357° (N) 1,911 6.4 -22.6°
Sets 22:58:27 0° 7° (N) 2,810 7.7 -22.5°
